Ocala, FL

10:00 AM EST on February 19, 2017 (GMT -0500)
Ocala Regional-Taylor

Weather History for KOCF - March, 2013

Change the Weather History Date:

Monday, March 25, 2013

  Actual Average Record
Temperature  
Mean Temperature 60 °F -  
Max Temperature 68 °F 76 °F 84 °F (1997)
Min Temperature 51 °F 51 °F 35 °F (2006)
Degree Days  
Heating Degree Days 6    
Growing Degree Days 10 (Base 50)    
Moisture  
Dew Point 41 °F    
Average Humidity 56    
Maximum Humidity 94    
Minimum Humidity 20    
Precipitation  
Precipitation 0.00 in - - ()
Sea Level Pressure  
Sea Level Pressure 29.88 in    
Wind  
Wind Speed 9 mph (WNW)    
Max Wind Speed 16 mph    
Max Gust Speed 22 mph    
Visibility 10 miles    
Events      
Averages and records for this station are not official NWS values.
T = Trace of Precipitation, MM = Missing Value Source: NWS Daily Summary

Daily Weather History Graph

Daily Weather History Graph

Search for Another Location

Airport or City:

Trip Planner

Search our weather history database for the weather conditions in past years. The results will help you decide how hot, cold, wet, or windy it might be!

Date:

Astronomy

Mar. 25, 2013 Rise Set
Actual Time 7:26 AM EDT 7:43 PM EDT
Civil Twilight 7:02 AM EDT 8:07 PM EDT
Nautical Twilight 6:35 AM EDT 8:34 PM EDT
Astronomical Twilight 6:07 AM EDT 9:02 PM EDT
Moon 6:17 PM EDT (3/25) 6:02 AM EDT (3/25)
Length of Visible Light 13h 04m
Length of Day
12h 16m
Waxing Gibbous, 96% of the Moon is Illuminated
Mar 25
Waxing Gibbous
Mar 27
Full
Apr 3
Last Quarter
Apr 10
New
Apr 18
First Quarter

Hourly Weather History & Observations

Time (EDT) Temp. Dew Point Humidity Pressure Visibility Wind Dir Wind Speed Gust Speed Precip Events Conditions
12:15 AM 64.4 °F 60.8 °F 88% 29.72 in 8.0 mi WSW 11.5 mph - N/A   Clear
12:35 AM 64.4 °F 60.8 °F 88% 29.73 in 10.0 mi WSW 11.5 mph - N/A   Clear
12:55 AM 64.4 °F 60.8 °F 88% 29.73 in 10.0 mi WSW 11.5 mph 16.1 mph N/A   Clear
1:15 AM 64.4 °F 60.8 °F 88% 29.73 in 10.0 mi WSW 10.4 mph - N/A   Clear
1:35 AM 64.4 °F 60.8 °F 88% 29.73 in 10.0 mi West 9.2 mph - N/A   Clear
1:55 AM 62.6 °F 60.8 °F 94% 29.73 in 10.0 mi WSW 8.1 mph - N/A   Partly Cloudy
2:15 AM 62.6 °F 60.8 °F 94% 29.74 in 10.0 mi West 8.1 mph - N/A   Scattered Clouds
2:35 AM 62.6 °F 59.0 °F 88% 29.74 in 10.0 mi West 6.9 mph - N/A   Mostly Cloudy
2:55 AM 62.6 °F 59.0 °F 88% 29.74 in 10.0 mi West 5.8 mph - N/A   Mostly Cloudy
3:15 AM 62.6 °F 59.0 °F 88% 29.74 in 10.0 mi West 8.1 mph - N/A   Scattered Clouds
3:35 AM 62.6 °F 59.0 °F 88% 29.75 in 10.0 mi West 6.9 mph - N/A   Mostly Cloudy
3:55 AM 62.6 °F 59.0 °F 88% 29.75 in 10.0 mi West 5.8 mph - N/A   Overcast
4:15 AM 62.6 °F 57.2 °F 82% 29.75 in 10.0 mi West 5.8 mph - N/A   Overcast
4:35 AM 62.6 °F 57.2 °F 82% 29.76 in 10.0 mi WNW 5.8 mph - N/A   Overcast
4:55 AM 62.6 °F 55.4 °F 77% 29.78 in 10.0 mi NW 9.2 mph - N/A   Overcast
5:15 AM 60.8 °F 51.8 °F 72% 29.79 in 10.0 mi NW 13.8 mph 19.6 mph N/A   Scattered Clouds
5:35 AM 57.2 °F 35.6 °F 44% 29.80 in 10.0 mi NW 11.5 mph 19.6 mph N/A   Clear
5:55 AM 55.4 °F 35.6 °F 47% 29.81 in 10.0 mi NNW 8.1 mph - N/A   Clear
6:15 AM 55.4 °F 35.6 °F 47% 29.82 in 10.0 mi NNW 6.9 mph - N/A   Clear
6:35 AM 53.6 °F 35.6 °F 51% 29.83 in 10.0 mi NNW 4.6 mph - N/A   Clear
6:50 AM 51.8 °F 35.6 °F 54% 29.84 in 10.0 mi NNW 6.9 mph - N/A   Partly Cloudy
7:50 AM 51.8 °F 35.6 °F 54% 29.87 in 10.0 mi NW 8.1 mph - N/A   Clear
8:50 AM 53.6 °F 35.6 °F 51% 29.91 in 10.0 mi NW 10.4 mph 17.3 mph N/A   Clear
9:50 AM 53.6 °F 33.8 °F 47% 29.94 in 10.0 mi NNW 16.1 mph 21.9 mph N/A   Clear
10:50 AM 55.4 °F 35.6 °F 47% 29.95 in 10.0 mi WNW 8.1 mph - N/A   Clear
11:50 AM 59.0 °F 30.2 °F 34% 29.96 in 10.0 mi WNW 13.8 mph - N/A   Clear
12:50 PM 62.6 °F 28.4 °F 27% 29.96 in 10.0 mi NW 12.7 mph 16.1 mph N/A   Clear
1:50 PM 64.4 °F 28.4 °F 26% 29.94 in 10.0 mi NW 15.0 mph - N/A   Clear
2:50 PM 66.2 °F 24.8 °F 21% 29.92 in 10.0 mi WNW 13.8 mph 19.6 mph N/A   Clear
3:50 PM 68.0 °F 24.8 °F 20% 29.90 in 10.0 mi NW 9.2 mph 19.6 mph N/A   Clear
4:50 PM 68.0 °F 24.8 °F 20% 29.89 in 10.0 mi NW 12.7 mph - N/A   Clear
5:50 PM 66.2 °F 37.4 °F 35% 29.89 in 10.0 mi SW 12.7 mph 19.6 mph N/A   Clear
6:50 PM 62.6 °F 35.6 °F 37% 29.92 in 10.0 mi WSW 11.5 mph - N/A   Clear
7:55 PM 57.2 °F 30.2 °F 36% 29.95 in 10.0 mi West 10.4 mph 16.1 mph N/A   Clear
8:15 PM 57.2 °F 30.2 °F 36% 29.97 in 10.0 mi West 9.2 mph 16.1 mph N/A   Clear
8:35 PM 55.4 °F 30.2 °F 38% 29.98 in 10.0 mi West 8.1 mph - N/A   Clear
8:55 PM 55.4 °F 30.2 °F 38% 29.99 in 10.0 mi West 5.8 mph - N/A   Clear
9:15 PM 55.4 °F 30.2 °F 38% 30.00 in 10.0 mi WNW 8.1 mph - N/A   Clear
9:35 PM 53.6 °F 30.2 °F 41% 30.01 in 10.0 mi WNW 6.9 mph - N/A   Clear
9:55 PM 53.6 °F 30.2 °F 41% 30.02 in 10.0 mi WNW 5.8 mph - N/A   Clear
10:15 PM 53.6 °F 30.2 °F 41% 30.04 in 10.0 mi West 4.6 mph - N/A   Clear
10:35 PM 51.8 °F 30.2 °F 44% 30.05 in 10.0 mi West 3.5 mph - N/A   Clear
10:55 PM 51.8 °F 30.2 °F 44% 30.06 in 10.0 mi West 4.6 mph - N/A   Clear
11:15 PM 51.8 °F 32.0 °F 47% 30.06 in 10.0 mi West 5.8 mph - N/A   Clear
11:35 PM 53.6 °F 32.0 °F 44% 30.07 in 10.0 mi WNW 6.9 mph - N/A   Clear
11:55 PM 53.6 °F 30.2 °F 41% 30.07 in 10.0 mi WNW 6.9 mph - N/A   Clear